Location: Cluny
(50.9333°N, 112.8167°W)
Time: 18:09:50
(UTC-07:00)

Hamsat - Visible Passes

Search period start: 28 November 2014 00:00
Search period end: 08 December 2014 00:00
Orbit: 593 x 626 km, 97.6° (Epoch: 27 November)

Date Brightness Start Highest point End Pass type
(mag) Time Alt. Az. Time Alt. Az. Time Alt. Az.
28 Nov ? 05:01:24 10° ENE 05:03:21 13° E 05:05:18 10° ESE visible
28 Nov ? 06:35:31 10° NNE 06:39:54 85° WNW 06:44:15 10° SSW visible
28 Nov ? 17:33:26 10° S 17:37:37 64° WSW 17:41:53 10° NNW visible
29 Nov ? 05:14:41 10° NE 05:17:35 17° E 05:20:28 10° SE visible
29 Nov ? 06:49:37 10° N 06:53:56 63° WNW 06:58:14 10° SSW visible
29 Nov ? 17:47:39 10° S 17:51:43 46° W 17:55:51 10° NNW visible
30 Nov ? 05:28:18 10° NE 05:31:47 23° E 05:35:15 10° SE visible
30 Nov ? 07:03:45 10° N 07:07:56 46° WNW 07:12:06 10° SW visible
30 Nov ? 18:01:58 10° SSW 18:05:50 34° W 18:09:45 10° NNW visible
01 Dec ? 05:42:03 10° NNE 05:45:56 30° E 05:49:48 10° SSE visible
01 Dec ? 07:17:56 10° N 07:21:54 35° WNW 07:25:51 10° SW visible
01 Dec ? 18:16:26 10° SSW 18:19:58 25° W 18:23:33 10° NW visible
02 Dec ? 05:55:54 10° NNE 06:00:03 41° E 06:04:10 10° SSE visible
02 Dec ? 07:32:10 10° N 07:35:49 27° WNW 07:39:29 10° WSW visible
02 Dec ? 18:31:05 10° SW 18:34:07 19° W 18:37:12 10° NW visible
03 Dec ? 06:09:49 10° NNE 06:14:08 56° E 06:18:25 10° S visible
03 Dec ? 17:07:36 10° SSE 17:11:50 74° ENE 17:16:08 10° N visible
03 Dec ? 18:46:01 10° WSW 18:48:18 14° W 18:50:37 10° NW visible
04 Dec ? 06:23:47 10° NNE 06:28:10 77° ESE 06:32:32 10° S visible
04 Dec ? 17:21:35 10° SSE 17:25:50 82° WSW 17:30:10 10° NNW visible
04 Dec ? 19:01:52 10° W 19:02:31 10° W 19:03:09 10° WNW visible
05 Dec ? 05:03:26 10° NE 05:05:41 14° E 05:07:55 10° ESE visible
05 Dec ? 06:37:48 10° NNE 06:42:11 79° WNW 06:46:32 10° SSW visible
05 Dec ? 17:35:39 10° S 17:39:51 60° W 17:44:08 10° NNW visible
06 Dec ? 05:16:47 10° NE 05:19:51 18° E 05:22:53 10° SE visible
06 Dec ? 06:51:50 10° N 06:56:09 59° WNW 07:00:25 10° SSW visible
06 Dec ? 17:49:50 10° S 17:53:54 43° W 17:58:02 10° NNW visible
07 Dec ? 05:30:23 10° NE 05:33:58 24° E 05:37:32 10° SSE visible
07 Dec ? 07:05:56 10° N 07:10:05 43° WNW 07:14:12 10° SW visible
07 Dec ? 18:04:07 10° SSW 18:07:57 32° W 18:11:51 10° NNW visible
